sat.trackr.live / text

‹ back to catalog

STARLINK-35402

NORAD 66079 · 2025-235X

PAYLOAD ACTIVE UNKNOWN

§ Identity

Operator
Country
US
Launch date
2025-10-19
Launch site
AFETR
Launch vehicle
Mass (kg)
RCS (m²)

Purposes: comms

External: N2YO · Heavens-Above · Gunter

§ Orbital elements

Epoch: 2026-05-24T15:34:47.398080Z

Period
94.11 min
Inclination
53.1577°
Eccentricity
0.0001283
Mean motion
15.30193740 rev/d
Perigee alt
474.4 km
Apogee alt
476.1 km
Semi-major
6,853.4 km
B*
1.4710e-4
RAAN
252.2687°
Arg perigee
87.4623°
Mean anomaly
272.6524°
Rev number
3,455

§ Raw data

STARLINK-354021 66079U 25235X   26144.64915970  .00003999  00000+0  14710-3 0  99982 66079  53.1577 252.2687 0001283  87.4623 272.6524 15.30193740 34552

JSON: /api/v1/satellites/66079 · /tle

For live sub-satellite position, see the globe view (requires WebGL).

§ Visibility from observer

Set your observer location to see the next 7 days of passes ≥ 10°. The values pass through the URL so the page stays shareable.

No JS? Fill the form by hand. The geolocation button needs JavaScript.